Fargo, ND

7:18 PM CDT on August 21, 2017 (GMT -0500)
Hector International

Weather History for KFAR - May, 2013

Change the Weather History Date:

Tuesday, May 21, 2013

  Actual Average Record
Temperature  
Mean Temperature 52 °F 59 °F  
Max Temperature 55 °F 71 °F 98 °F (1964)
Min Temperature 49 °F 47 °F 25 °F (1963)
Degree Days  
Heating Degree Days 13 7  
Month to date heating degree days 221 213  
Since 1 July heating degree days 9213 8669  
Cooling Degree Days 0 1  
Month to date cooling degree days 21 17  
Year to date cooling degree days 21 20  
Moisture  
Dew Point 47 °F    
Average Humidity 85    
Maximum Humidity 93    
Minimum Humidity 77    
Precipitation  
Precipitation 0.29 in 0.10 in 1.06 in (1905)
Month to date precipitation 2.42 1.81  
Year to date precipitation 8.16 5.81  
Snow  
Snow 0.00 in 0.00 in 0.10 in (1963)
Month to date snowfall 0.0 0.0  
Since 1 July snowfall 68.4 50.4  
Snow Depth 0.00 in    
Sea Level Pressure  
Sea Level Pressure 29.70 in    
Wind  
Wind Speed 17 mph (NNE)    
Max Wind Speed 26 mph    
Max Gust Speed 32 mph    
Visibility 8 miles    
Events Rain    
T = Trace of Precipitation, MM = Missing Value Source: NWS Daily Summary

Daily Weather History Graph

Daily Weather History Graph

Search for Another Location

Airport or City:

Trip Planner

Search our weather history database for the weather conditions in past years. The results will help you decide how hot, cold, wet, or windy it might be!

Date:

Astronomy

May. 21, 2013 Rise Set
Actual Time 5:45 AM CDT 9:03 PM CDT
Civil Twilight 5:08 AM CDT 9:40 PM CDT
Nautical Twilight 4:19 AM CDT 10:28 PM CDT
Astronomical Twilight 3:18 AM CDT 11:30 PM CDT
Moon 5:05 PM CDT (5/21) 3:29 AM CDT (5/21)
Length of Visible Light 16h 32m
Length of Day
15h 18m
Waxing Gibbous, 84% of the Moon is Illuminated
May 21
Waxing Gibbous
May 24
Full
May 31
Last Quarter
Jun 8
New
Jun 16
First Quarter

Hourly Weather History & Observations

Time (CDT) Temp. Dew Point Humidity Pressure Visibility Wind Dir Wind Speed Gust Speed Precip Events Conditions
12:53 AM 55.0 °F 51.1 °F 86% 29.56 in 10.0 mi ENE 17.3 mph - N/A   Overcast
1:53 AM 55.0 °F 50.0 °F 83% 29.57 in 10.0 mi ENE 16.1 mph 23.0 mph N/A   Overcast
2:53 AM 54.0 °F 50.0 °F 86% 29.58 in 10.0 mi ENE 18.4 mph 24.2 mph N/A   Overcast
3:53 AM 53.1 °F 50.0 °F 89% 29.59 in 4.0 mi ENE 18.4 mph 23.0 mph 0.00 in Rain Light Rain
4:25 AM 53.6 °F 50.0 °F 88% 29.59 in 8.0 mi NE 12.7 mph 21.9 mph 0.01 in   Overcast
4:53 AM 53.1 °F 48.9 °F 86% 29.60 in 10.0 mi NE 17.3 mph - 0.01 in   Overcast
5:46 AM 51.8 °F 48.2 °F 88% 29.61 in 5.0 mi NE 16.1 mph - 0.00 in Rain Light Rain
5:53 AM 52.0 °F 48.9 °F 89% 29.62 in 5.0 mi NE 18.4 mph - 0.01 in Rain Light Rain
6:03 AM 51.8 °F 48.2 °F 88% 29.61 in 6.0 mi NNE 16.1 mph - 0.00 in Rain Light Rain
6:27 AM 51.8 °F 48.2 °F 88% 29.63 in 2.5 mi NNE 16.1 mph - 0.02 in Rain Rain
6:36 AM 50.0 °F 48.2 °F 94% 29.63 in 1.5 mi NNE 13.8 mph - 0.06 in Rain Rain
6:53 AM 50.0 °F 46.9 °F 89% 29.64 in 1.8 mi NNE 18.4 mph 24.2 mph 0.12 in Rain Rain
6:55 AM 50.0 °F 46.4 °F 87% 29.64 in 2.0 mi NNE 16.1 mph 24.2 mph 0.00 in Rain Light Rain
7:03 AM 50.0 °F 46.4 °F 87% 29.64 in 4.0 mi NNE 17.3 mph - 0.00 in Rain Light Rain
7:53 AM 48.9 °F 46.0 °F 90% 29.66 in 6.0 mi NNE 17.3 mph 25.3 mph 0.02 in Rain Light Rain
8:53 AM 48.9 °F 46.0 °F 90% 29.68 in 4.0 mi NNE 16.1 mph - 0.07 in Rain Rain
9:01 AM 48.2 °F 46.4 °F 93% 29.67 in 6.0 mi NNE 17.3 mph 23.0 mph 0.01 in Rain Light Rain
9:16 AM 48.2 °F 46.4 °F 93% 29.67 in 7.0 mi North 19.6 mph - 0.01 in Rain Light Rain
9:23 AM 48.2 °F 46.4 °F 93% 29.67 in 8.0 mi NNE 17.3 mph - 0.02 in Rain Light Rain
9:49 AM 48.2 °F 46.4 °F 93% 29.68 in 8.0 mi NNE 17.3 mph - 0.03 in Rain Light Rain
9:53 AM 48.9 °F 46.0 °F 90% 29.69 in 6.0 mi NNE 18.4 mph 26.5 mph 0.03 in Rain Light Rain
10:24 AM 48.2 °F 44.6 °F 87% 29.68 in 10.0 mi NNE 19.6 mph 25.3 mph 0.01 in Rain Light Rain
10:53 AM 48.9 °F 46.0 °F 90% 29.70 in 9.0 mi NNE 17.3 mph 24.2 mph 0.01 in Rain Light Rain
11:53 AM 51.1 °F 46.0 °F 83% 29.71 in 10.0 mi NE 18.4 mph - 0.00 in   Overcast
12:53 PM 51.1 °F 46.0 °F 83% 29.73 in 10.0 mi NNE 16.1 mph 24.2 mph N/A   Overcast
1:53 PM 51.1 °F 46.0 °F 83% 29.74 in 10.0 mi North 20.7 mph 26.5 mph N/A   Overcast
2:53 PM 52.0 °F 46.0 °F 80% 29.75 in 10.0 mi NNE 20.7 mph 27.6 mph N/A   Overcast
3:53 PM 52.0 °F 46.0 °F 80% 29.77 in 10.0 mi NNE 18.4 mph 28.8 mph N/A   Overcast
4:53 PM 52.0 °F 45.0 °F 77% 29.78 in 10.0 mi NE 17.3 mph 29.9 mph N/A   Overcast
5:53 PM 52.0 °F 45.0 °F 77% 29.80 in 10.0 mi NE 20.7 mph 27.6 mph N/A   Overcast
6:53 PM 50.0 °F 45.0 °F 83% 29.81 in 7.0 mi NNE 20.7 mph 26.5 mph 0.00 in Rain Light Rain
7:53 PM 50.0 °F 45.0 °F 83% 29.83 in 10.0 mi NNE 15.0 mph - 0.01 in Rain Light Rain
8:53 PM 50.0 °F 45.0 °F 83% 29.84 in 10.0 mi NNE 16.1 mph - 0.01 in Rain Light Rain
9:53 PM 50.0 °F 44.1 °F 80% 29.85 in 10.0 mi NNE 18.4 mph 24.2 mph 0.00 in   Overcast
10:53 PM 48.9 °F 44.1 °F 83% 29.86 in 10.0 mi NNE 13.8 mph - N/A   Overcast
11:53 PM 48.9 °F 44.1 °F 83% 29.87 in 10.0 mi NNE 11.5 mph - N/A   Overcast